Regional Weather Roundup
Issued by NWS State College, PA

Home | Current Version | Previous Version | Text Only | Print | Product List | Glossary On
Versions: 1 2 3 4 5 6 7 8 9 10 11 12 13 14 15 16 17 18 19 20 21 22 23 24 25 26 27 28 29 30 31 32 33 34 35 36 37 38 39 40 41 42 43 44 45 46 47 48 49 50
000
ASUS41 KCTP 232010
RWRCTP

REGIONAL WEATHER ROUNDUP
NATIONAL WEATHER SERVICE STATE COLLEGE PA
400 PM EDT WED AUG 23 2017

Note: "fair" indicates few or no clouds below 12,000 feet with no
significant weather and/or obstructions to visibility.

* = STATION THAT DOES NOT REPORT PRECIPITATION /E.G. RAIN...SNOW...ETC/
    THUNDER OR FOG.

PAZ002>004-007>009-013>016-020>023-029>032-232100-
WESTERN PENNSYLVANIA

CITY           SKY/WX    TMP DP  RH WIND       PRES   REMARKS
ERIE           MOSUNNY   72  55  55 W15       29.94F
MEADVILLE      PTSUNNY   73  55  53 W9        29.96S
FRANKLIN*      SUNNY     72  52  49 NW12G17   29.96S
NEW CASTLE     CLOUDY    73  55  53 W6        29.96F
BEAVER COUNTY  PTSUNNY   73  52  46 W7        29.96F
BUTLER*        MOSUNNY   72  53  51 VRB5      29.96F
PITTSBURGH INT MOSUNNY   75  52  44 W7        29.95F
PITTSBURGH     MOSUNNY   75  49  39 W7        29.95F
INDIANA*       MOSUNNY   75  52  43 NW8G15    29.98F
LATROBE        MOSUNNY   72  54  53 VRB7      29.97S
WASHINGTON CO* PTSUNNY   73  54  49 W7        29.97F
$$

PAZ004>006-010>012-017>019-024>028-033>037-041-042-045-046-049>053-232100-
CENTRAL PENNSYLVANIA

CITY           SKY/WX    TMP DP  RH WIND       PRES   REMARKS
BRADFORD       PTSUNNY   68  53  58 NW9       29.95R
DUBOIS         MOSUNNY   70  50  49 W10       29.94F
CLEARFIELD     MOSUNNY   73  50  44 NW10      29.94F
JOHNSTOWN      SUNNY     71  48  43 NW12      29.98F
ALTOONA        MOSUNNY   75  51  43 NW10G18   29.94F
STATE COLLEGE  PTSUNNY   75  52  43 SW7       29.93F
WILLIAMSPORT   PTSUNNY   77  53  43 W3        29.87F
SELINSGROVE    MOSUNNY   79  56  45 VRB5      29.89F
FT INDIANTOWN  MOSUNNY   79  55  43 W7        29.88F
CAPITAL CITY   MOSUNNY   81  51  35 W13G18    29.87F
HARRISBURG     MOSUNNY   81  55  40 NW12      29.87F
YORK           SUNNY     79  59  50 NW8       29.88F
$$

PAZ038>040-043-044-047-048-054-055-060>062-067>071-232100-
EASTERN PENNSYLVANIA

CITY           SKY/WX    TMP DP  RH WIND       PRES   REMARKS
SCRANTON       MOSUNNY   76  52  43 NW7       29.89S
MOUNT POCONO   PTSUNNY   70  52  52 NW12      29.91S
ALLENTOWN      MOSUNNY   80  55  42 VRB7      29.86F
QUAKERTOWN*    CLEAR     77  55  47 NW5       29.88F
READING        PTSUNNY   80  57  45 NW9       29.86F
LANCASTER      MOSUNNY   80  57  45 NW12      29.88F
COATESVILLE    CLEAR     77  57  50 N8        29.90F
POTTSTOWN      SUNNY     78  54  43 NW8       29.88F
BLUE BELL      MOSUNNY   77  55  47 NW7       29.87F
DOYLESTOWN     PTSUNNY   80  54  40 VRB5      29.86S
WILLOW GROVE   NOT AVBL
NORTH PHILA    PTSUNNY   82  57  42 W14G21    29.86F
PHILADELPHIA   PTSUNNY   83  55  38 NW8       29.85F
$$



USA.gov is the U.S. government's official web portal to all federal, state and local government web resources and services.